User: anonymous   Login
Location: Mt. Cuba Astronomical Observatory
(39.8100°N, 75.6300°W)
Time: 13:02:07
(UTC-04:00)
Language:

Cosmos 2058 - Orbit

View from above orbital plane
View from above orbital plane
View from above satellite
View from above satellite

Ground track
Ground track

The orbit data is extracted from the following two-line orbital elements,

1 20465U 90010A   16272.07103771  .00000577  00000-0  47302-4 0  9990
2 20465  82.4896 139.8475 0017204  96.5238 263.7943 14.97303384446112
Epoch (UTC): 28 September 2016 01:42:17
Eccentricity: 0.0017204
inclination: 82.4896°
perigee height: 563 km
apogee height: 587 km
right ascension of ascending node: 139.8475°
argument of perigee: 96.5238°
revolutions per day: 14.97303384
mean anomaly at epoch: 263.7943°
orbit number at epoch: 44611

The dashed part of the orbit path shows where the satellite is in the earth's shadow,  

DLR